Flight Track Log - Related Links

Times and Time Zones

All times are in EDT time to prevent confusion due to time zone crossing. See the N53NW flight status page for this flight to view local times or setup timezone preferences in your user account.

Time Position Orientation Groundspeed Altitude Reporting Facility
EDT Latitude Longitude Course Direction KTS MPH feet Rate Location/Type
Mon 03:10:22 PM 27.9167 -82.7000 352° North 162 186 600  Level Tampa TRACON
Mon 03:11:46 PM 28.0167 -82.7167 352° North 256 295 1,700 1,458 Climbing Tampa TRACON
Mon 03:12:46 PM 28.0833 -82.7167 360° North 264 304 4,100 2,150 Climbing Tampa TRACON
Mon 03:13:46 PM 28.1500 -82.7000 12° North 276 318 6,000 1,550 Climbing Tampa TRACON
Mon 03:14:46 PM 28.2333 -82.7000 360° North 283 326 7,200 1,770 Climbing Tampa TRACON
Mon 03:17:06 PM 28.4169 -82.6636 10° North 282 325 11,900 1,447 Climbing Jacksonville Center
Mon 03:18:05 PM 28.5067 -82.6539 North 305 351 12,000 1,109 Climbing Jacksonville Center
Mon 03:19:05 PM 28.5983 -82.6489 North 315 362 14,100 1,983 Climbing Jacksonville Center
Mon 03:20:06 PM 28.6881 -82.6417 North 320 368 16,000 1,950 Climbing Jacksonville Center
Mon 03:21:05 PM 28.7758 -82.6367 North 320 368 18,000 2,017 Climbing Jacksonville Center
Mon 03:22:05 PM 28.8675 -82.6317 North 320 368 20,000 1,983 Climbing Jacksonville Center
Mon 03:23:06 PM 28.9553 -82.6172 North 320 368 22,000 2,033 Climbing Jacksonville Center
Mon 03:24:06 PM 29.0408 -82.5956 12° North 320 368 24,100 2,000 Climbing Jacksonville Center
Mon 03:25:06 PM 29.1283 -82.5764 11° North 315 362 26,000 1,900 Climbing Jacksonville Center
Mon 03:26:06 PM 29.2117 -82.5572 11° North 315 362 27,900 1,750 Climbing Jacksonville Center
Mon 03:27:06 PM 29.2972 -82.5353 13° North 310 357 29,500 1,500 Climbing Jacksonville Center
Mon 03:28:06 PM 29.3850 -82.5208 North 316 364 30,900 1,450 Climbing Jacksonville Center
Mon 03:29:06 PM 29.4789 -82.5061 North 321 369 32,400 1,400 Climbing Jacksonville Center
Mon 03:30:06 PM 29.5706 -82.4961 North 326 375 33,700 1,250 Climbing Jacksonville Center
Mon 03:31:06 PM 29.6667 -82.5053 355° North 331 381 34,900 650 Climbing Jacksonville Center
Mon 03:32:06 PM 29.7692 -82.5169 354° North 344 396 35,000 50 Climbing Jacksonville Center
Mon 03:33:06 PM 29.8778 -82.5406 349° North 367 422 35,000  Level Jacksonville Center
Mon 03:34:06 PM 29.9883 -82.5642 350° North 395 455 35,000  Level Jacksonville Center
Mon 03:35:06 PM 30.0992 -82.5900 349° North 395 455 35,000  Level Jacksonville Center
Mon 03:36:06 PM 30.2056 -82.6114 350° North 395 455 35,000  Level Jacksonville Center
Mon 03:37:06 PM 30.3164 -82.6328 351° North 395 455 35,000  Level Jacksonville Center
Mon 03:38:06 PM 30.4292 -82.6469 354° North 395 455 35,000  Level Jacksonville Center
Mon 03:39:06 PM 30.5356 -82.6658 351° North 390 449 35,000  Level Jacksonville Center
Mon 03:40:06 PM 30.6464 -82.6850 352° North 390 449 35,000  Level Jacksonville Center
Mon 03:41:06 PM 30.7569 -82.6944 356° North 390 449 35,000  Level Jacksonville Center
Mon 03:42:06 PM 30.8678 -82.7039 356° North 390 449 35,000  Level Jacksonville Center
Mon 03:43:06 PM 30.9783 -82.7350 346° North 395 455 35,000  Level Jacksonville Center
Mon 03:44:06 PM 31.0892 -82.7689 345° North 395 455 35,000  Level Jacksonville Center
Mon 03:45:06 PM 31.1853 -82.7956 347° North 395 455 35,000  Level Jacksonville Center
Mon 03:46:06 PM 31.2939 -82.8269 346° North 395 455 35,000 -604 Level Jacksonville Center
Mon 03:47:45 PM 31.4719 -82.8847 345° North 397 457 33,400 -755 Descending Atlanta Center
Mon 03:48:45 PM 31.5808 -82.9225 344° North 397 457 33,000 -200 Descending Atlanta Center
Mon 03:49:45 PM 31.6878 -82.9650 341° North 397 457 33,000  Level Atlanta Center
Mon 03:50:45 PM 31.7944 -83.0103 340° North 403 464 33,000  Level Atlanta Center
Mon 03:51:45 PM 31.9033 -83.0531 342° North 408 470 33,000 -250 Level Atlanta Center
Mon 03:52:45 PM 32.0103 -83.0958 341° North 408 470 32,500 -1,050 Descending Atlanta Center
Mon 03:53:45 PM 32.1189 -83.1389 341° North 408 470 30,900 -1,850 Descending Atlanta Center
Mon 03:54:45 PM 32.2383 -83.1867 341° North 408 470 28,800 -1,950 Descending Atlanta Center
Mon 03:55:45 PM 32.3450 -83.2300 341° North 408 470 27,000 -1,750 Descending Atlanta Center
Mon 03:56:45 PM 32.4475 -83.2758 339° North 408 470 25,300 -1,500 Descending Atlanta Center
Mon 03:57:45 PM 32.5481 -83.3169 341° North 397 457 24,000 -650 Descending Atlanta Center
Mon 03:58:45 PM 32.6486 -83.3581 341° North 389 448 24,000 -400 Level Atlanta Center
Mon 03:59:45 PM 32.7511 -83.3992 341° North 389 448 23,200 -1,850 Descending Atlanta Center
Mon 04:00:45 PM 32.8492 -83.4381 342° North 389 448 20,300 -3,050 Descending Atlanta Center
Mon 04:01:45 PM 32.9414 -83.4769 341° North 374 430 17,100 -3,000 Descending Atlanta Center
Mon 04:02:45 PM 33.0292 -83.5161 339° North 345 397 14,300 -2,650 Descending Atlanta Center
Mon 04:03:45 PM 33.1128 -83.5503 341° North 322 371 11,800 -1,650 Descending Atlanta Center
Mon 04:04:45 PM 33.1861 -83.5797 341° North 309 356 11,000 -400 Descending Atlanta Center
Mon 04:05:45 PM 33.2653 -83.6139 340° North 304 350 11,000  Level Atlanta Center
Mon 04:06:45 PM 33.3428 -83.6458 341° North 304 350 11,000 -250 Level Atlanta Center
Mon 04:07:45 PM 33.4139 -83.6906 332° Northwest 292 336 10,500 -1,000 Descending Atlanta Center
Mon 04:08:45 PM 33.4786 -83.7425 326° Northwest 286 329 9,000 -1,500 Descending Atlanta Center
Mon 04:09:45 PM 33.5436 -83.7869 330° Northwest 272 313 7,500 -1,600 Descending Atlanta Center
Mon 04:10:45 PM 33.6083 -83.8144 341° North 253 291 5,800 -1,250 Descending Atlanta Center
Mon 04:11:45 PM 33.6792 -83.8292 350° North 248 285 5,000 -540 Descending Atlanta Center
Mon 04:14:05 PM 33.8000 -83.9500 320° Northwest 233 268 4,000 -291 Descending Atlanta TRACON
Mon 04:15:11 PM 33.8000 -84.0167 270° West 224 258 4,000  Level Atlanta TRACON
Mon 04:16:05 PM 33.8000 -84.1000 270° West 245 282 4,000  Level Atlanta TRACON
Mon 04:17:11 PM 33.8167 -84.1833 284° West 245 282 4,000  Level Atlanta TRACON
Mon 04:18:05 PM 33.8167 -84.2500 270° West 243 280 4,000 -650 Level Atlanta TRACON
Mon 04:19:11 PM 33.8000 -84.3500 259° West 248 285 2,700 -714 Descending Atlanta TRACON
Mon 04:20:11 PM 33.8000 -84.4167 270° West 172 198 2,500 -400 Descending Atlanta TRACON
Mon 04:21:11 PM 33.7833 -84.4667 248° West 123 142 1,900 -600 Descending Atlanta TRACON
Mon 04:23:00 PM 33.7667 -84.5167 231° Southwest  Level FlightAware Approximate
Mon 04:30:00 PM 33.7791 -84.5214 231° Southwest  Level Estimated
Mon 04:31:00 PM 33.7791 -84.5214 231° Southwest  Level Estimated

Login

Don't have an account? Register now (free) for customized features, flight alerts, and more!